Weather observations for the past three days for
Cancun International Airport
Imperial (Metric)
Date Time (est) Wind (mph) Vis. (mi.) Weather Sky Cond. Temperature (ºF) Relative Humidity Wind Chill (°F) Heat Index (°F) Pressure Precipitation (in)
Air Dwpt 6 hour altimeter (in) sea level (mb) 1 hr 3 hr 6 hr
Max. Min.
07 11:50 S 9 7.00 Partly Cloudy SCT015TCU 87.8 75.2 66% 98 29.95 0.0
07 10:41 SE 9 7.00 Mostly Cloudy BKN015TCU 86 73.4 66% 93 29.96 0.0
07 09:41 SE 9 7.00 Partly Cloudy SCT015 87.8 73.4 62% 96 29.96 1014.7
07 08:41 SE 9 7.00 Partly Cloudy SCT015TCU 84.2 73.4 70% 91 29.95 0.0
07 07:40 SE 10 7.00 Partly Cloudy SCT015TCU 84.2 73.4 70% 91 29.94 0.0
07 06:44 SE 6 7.00 A Few Clouds FEW015TCU 80.6 73.4 79% 85 29.92 1013.2
07 05:42 SE 6 7.00 Partly Cloudy SCT015TCU 80.6 75.2 84% 86 29.9 0.0
07 04:40 SE 6 7.00 A Few Clouds FEW015 80.6 73.4 79% 85 29.88 0.0
07 03:42 S 6 7.00 A Few Clouds FEW015 80.6 73.4 79% 85 29.89 1012.3
07 02:41 SE 6 7.00 Partly Cloudy SCT015 80.6 73.4 79% 85 29.9 0.0
07 01:40 S 8 7.00 Partly Cloudy SCT015 80.6 73.4 79% 85 29.92 0.0
07 00:41 S 8 7.00 Partly Cloudy SCT015 80.6 73.4 79% 85 29.95 1014.2
06 23:40 SE 9 7.00 Partly Cloudy SCT015 82.4 73.4 74% 88 29.95 0.0
06 22:41 SE 6 7.00 Partly Cloudy SCT015 82.4 75.2 79% 89 29.96 0.0
06 21:42 SE 7 7.00 Partly Cloudy SCT015 82.4 73.4 74% 88 29.95 1014.3
06 20:43 SE 10 7.00 Partly Cloudy SCT015 82.4 75.2 79% 89 29.94 0.0
06 19:49 SE 6 7.00 A Few Clouds FEW015 82.4 73.4 74% 88 29.93 0.0
06 18:40 SE 9 7.00 A Few Clouds FEW015 82.4 73.4 74% 88 29.92 1013.2
06 17:42 S 12 7.00 Partly Cloudy SCT015 84.2 73.4 70% 91 29.91 0.0
06 16:40 S 9 7.00 A Few Clouds FEW015 86 75.2 70% 95 29.9 0.0
06 15:40 S 12 7.00 Partly Cloudy SCT015 86 73.4 66% 93 29.91 1013.1
06 14:43 S 9 7.00 Partly Cloudy SCT015 89.6 73.4 59% 98 29.92 0.0
06 13:44 SE 12 7.00 Partly Cloudy SCT015 89.6 73.4 59% 98 29.94 0.0
06 12:45 SE 12 7.00 Partly Cloudy SCT015 87.8 73.4 62% 96 29.96 1014.8
06 11:48 SE 9 7.00 Partly Cloudy SCT015 86 73.4 66% 93 29.97 0.0
06 10:45 SE 9 7.00 Partly Cloudy SCT015 86 75.2 70% 95 29.97 0.0
06 09:49 SE 9 7.00 Partly Cloudy SCT015 86 75.2 70% 95 29.98 1015.2
06 08:41 SE 12 7.00 Partly Cloudy SCT015 86 77 75% 97 29.97 0.0
06 07:47 SE 12 7.00 Partly Cloudy SCT015 84.2 77 79% 94 29.96 0.0
06 06:42 SE 6 7.00 A Few Clouds FEW015 80.6 77 89% 87 29.95 1014.3
06 05:44 SE 8 7.00 A Few Clouds FEW015 80.6 77 89% 87 29.93 0.0
06 04:41 SE 9 7.00 A Few Clouds FEW015 80.6 75.2 84% 86 29.92 0.0
06 03:49 SE 8 7.00 A Few Clouds FEW015 80.6 75.2 84% 86 29.92 1013.3
06 02:40 SE 10 7.00 A Few Clouds FEW015 80.6 75.2 84% 86 29.92 0.0
06 01:43 SE 8 7.00 A Few Clouds FEW015 80.6 75.2 84% 86 29.94 0.0
06 00:44 SE 13 7.00 A Few Clouds FEW015 82.4 75.2 79% 89 29.95 1014.3
05 23:44 SE 13 7.00 A Few Clouds FEW015 82.4 75.2 79% 89 29.96 0.0
05 22:48 SE 10 7.00 A Few Clouds FEW015 82.4 75.2 79% 89 29.96 0.0
05 21:46 SE 9 7.00 A Few Clouds FEW015 82.4 75.2 79% 89 29.94 1014.1
05 20:40 SE 8 7.00 A Few Clouds FEW015 82.4 75.2 79% 89 29.93 0.0
05 19:41 SE 9 7.00 A Few Clouds FEW015 82.4 75.2 79% 89 29.91 0.0
05 18:40 SE 13 7.00 Partly Cloudy SCT015 84.2 75.2 74% 92 29.91 1012.8
05 17:43 SE 12 7.00 Partly Cloudy SCT015 86 75.2 70% 95 29.9 0.0
05 16:40 SE 9 7.00 Partly Cloudy SCT015 86 75.2 70% 95 29.89 0.0
05 15:42 SE 15 7.00 Partly Cloudy SCT015 87.8 75.2 66% 98 29.9 1012.5
05 14:42 SE 10 7.00 Partly Cloudy SCT015 86 77 75% 97 29.92 0.0
05 13:47 S 16 7.00 Partly Cloudy SCT015 87.8 75.2 66% 98 29.93 0.0
05 12:41 SE 12 7.00 Partly Cloudy SCT015 87.8 77 70% 100 29.95 1014.3
05 11:56 S 8 7.00 Mostly Cloudy BKN015 87.8 75.2 66% 98 29.95 0.0
05 10:48 SE 8 7.00 Mostly Cloudy BKN015 87.8 77 70% 100 29.96 0.0
05 09:52 E 13 7.00 Mostly Cloudy BKN015 86 75.2 70% 95 29.95 1014.3
05 08:51 S 13 7.00 Partly Cloudy SCT015 84.2 75.2 74% 92 29.94 0.0
05 07:47 SE 10 7.00 A Few Clouds FEW015 84.2 77 79% 94 29.92 0.0
05 06:40 SE 6 7.00 A Few Clouds FEW015 FEW250 78.8 75.2 89% 82 29.9 1012.8
05 05:41 Calm 7.00 A Few Clouds FEW015 77 75.2 94% 78 29.89 0.0
05 04:41 Calm 7.00 A Few Clouds FEW015 77 75.2 94% 78 29.89 0.0
05 03:40 Calm 7.00 A Few Clouds FEW015 78.8 75.2 89% 82 29.89 1012.2
05 02:41 S 2 7.00 A Few Clouds FEW015 78.8 77 94% 83 29.88 0.0
05 01:40 S 6 7.00 A Few Clouds FEW015 80.6 77 89% 87 29.91 0.0
05 00:42 S 5 7.00 A Few Clouds FEW015 80.6 77 89% 87 29.93 1013.6
04 23:40 SE 2 7.00 A Few Clouds FEW015 80.6 75.2 84% 86 29.95 0.0
04 22:40 SE 6 7.00 A Few Clouds FEW015 80.6 77 89% 87 29.94 0.0
04 21:43 SE 7 7.00 A Few Clouds FEW015TCU 80.6 77 89% 87 29.92 1013.2
04 20:43 SE 6 7.00 A Few Clouds FEW015TCU 82.4 77 84% 91 29.91 0.0
04 19:43 E 7 7.00 Partly Cloudy SCT015TCU SCT080 82.4 78.8 89% 92 29.9 0.0
04 18:45 SE 6 7.00 Mostly Cloudy SCT015 BKN080 84.2 78.8 84% 96 29.89 1012.3
04 17:42 E 5 7.00 Mostly Cloudy SCT015 SCT080 BKN250 84.2 78.8 84% 96 29.88 0.0
04 16:42 SE 6 6.00 Mostly Cloudy SCT015CB BKN080 BKN250 84.2 77 79% 94 29.9 0.0
04 15:46 SE 7 6.00 Mostly Cloudy FEW015CB SCT080 BKN250 82.4 78.8 89% 92 29.89 1012.5
04 15:08 SE 8 6.00 Light Rain SCT015CB BKN080 82.4 77 84% 91 29.92 0.0
04 14:46 SE 8 6.00 Mostly Cloudy SCT015CB BKN080 84.2 77 79% 94 29.92 0.0
04 13:45 SE 14 6.00 A Few Clouds FEW015CB 87.8 77 70% 100 29.91 0.0
Date Time (est) Wind (mph) Vis. (mi.) Weather Sky Cond. Air Dwpt Max. Min. Relative Humidity Wind Chill (°F) Heat Index (°F) altimeter (in) sea level (mb) 1 hr 3 hr 6 hr
6 hour
Temperature (ºF) Pressure Precipitation (in)